User: anonymous   Login
Location: Wildlife_Club
(35.6000°N, 81.4330°W)
Time: 23:56:53
(UTC-04:00)
Language:

Tiros 1 despin weight - Orbit

View from above orbital plane
View from above orbital plane
View from above satellite
View from above satellite

Ground track
Ground track

The orbit data is extracted from the following two-line orbital elements,

1   115U 60002D   19166.37954433 -.00000130  00000-0  11761-4 0  9991
2   115  48.1660 243.9630 0033712  66.5002 293.9448 14.83448267158321
Epoch (UTC): 15 June 2019 09:06:32
Eccentricity: 0.0033712
inclination: 48.1660°
perigee height: 595 km
apogee height: 642 km
right ascension of ascending node: 243.9630°
argument of perigee: 66.5002°
revolutions per day: 14.83448267
mean anomaly at epoch: 293.9448°
orbit number at epoch: 15832

The dashed part of the orbit path shows where the satellite is in the earth's shadow,  

DLR